Location: Little Arabia
(41.4620°N, 81.7687°W)
Time: 20:54:47
(UTC+00:00)

AQUARIUS - Pass Details

Date: 29 October 2020
Orbit: 650 x 653 km, 98.0° (Epoch: 03 December)

Event Time Altitude Azimuth Distance (km) Brightness Sun altitude
Rises 23:00:37 0° 168° (SSE) 2,960 7.6 -7.3°
Reaches altitude 10° 23:02:49 10° 169° (S) 2,053 6.8 -7.7°
Maximum altitude 23:07:18 81° 257° (WSW) 666 4.3 -8.5°
Drops below altitude 10° 23:11:49 10° 345° (NNW) 2,069 6.8 -9.3°
Sets 23:14:03 0° 347° (NNW) 2,984 7.6 -9.7°
